Weather History for KMSV - February, 2014

Change the Weather History Date:

Friday, February 14, 2014

  Actual Average Record
Temperature  
Mean Temperature 26 °F -  
Max Temperature 32 °F 32 °F 50 °F (2011)
Min Temperature 21 °F 16 °F -2 °F (2015)
Degree Days  
Heating Degree Days 38    
Moisture  
Dew Point 19 °F    
Average Humidity 71    
Maximum Humidity 86    
Minimum Humidity 55    
Precipitation  
Precipitation 0.00 in - - ()
Snow  
Snow 0.00 in - - ()
Snow Depth 16.00 in    
Sea Level Pressure  
Sea Level Pressure 29.37 in    
Wind  
Wind Speed 15 mph (WNW)    
Max Wind Speed 24 mph    
Max Gust Speed 39 mph    
Visibility 7 miles    
Events      
Averages and records for this station are not official NWS values.
T = Trace of Precipitation, MM = Missing Value Source: NWS Daily Summary

Daily Weather History Graph

Daily Weather History Graph

Search for Another Location

Airport or City:

Trip Planner

Search our weather history database for the weather conditions in past years. The results will help you decide how hot, cold, wet, or windy it might be!

Date:

Astronomy

Feb. 14, 2014 Rise Set
Actual Time 6:55 AM EST 5:31 PM EST
Civil Twilight 6:27 AM EST 5:59 PM EST
Nautical Twilight 5:54 AM EST 6:32 PM EST
Astronomical Twilight 5:22 AM EST 7:04 PM EST
Moon 5:33 PM EST (2/14) 6:21 AM EST (2/14)
Length of Visible Light 11h 32m
Length of Day
10h 35m
Full, 100% of the Moon is Illuminated
Feb 14
Full
Feb 14
Full
Feb 22
Last Quarter
Mar 1
New
Mar 8
First Quarter

Hourly Weather History & Observations

Time (EST) Temp. Windchill Dew Point Humidity Pressure Visibility Wind Dir Wind Speed Gust Speed Precip Events Conditions
12:15 AM 26.6 °F 15.7 °F 21.2 °F 80% 29.10 in 0.2 mi NW 12.7 mph - N/A   Overcast
12:35 AM 26.6 °F 14.7 °F 23.0 °F 86% 29.09 in 0.2 mi NNW 15.0 mph 20.7 mph N/A   Overcast
12:55 AM 26.6 °F 13.8 °F 23.0 °F 86% 29.07 in 0.2 mi NW 17.3 mph - N/A   Overcast
1:15 AM 26.6 °F 15.7 °F 23.0 °F 86% 29.07 in 0.5 mi WNW 12.7 mph 19.6 mph N/A   Overcast
1:35 AM 26.6 °F 14.7 °F 23.0 °F 86% 29.07 in 0.5 mi WNW 15.0 mph 20.7 mph N/A   Overcast
1:55 AM 26.6 °F 15.2 °F 23.0 °F 86% 29.07 in 0.5 mi WNW 13.8 mph 20.7 mph N/A   Overcast
2:15 AM 26.6 °F 14.3 °F 21.2 °F 80% 29.05 in 0.5 mi WNW 16.1 mph 23.0 mph N/A   Overcast
2:35 AM 26.6 °F 13.4 °F 21.2 °F 80% 29.06 in 0.8 mi WNW 18.4 mph 28.8 mph N/A   Overcast
2:55 AM 26.6 °F 13.8 °F 21.2 °F 80% 29.07 in 2.0 mi WNW 17.3 mph 27.6 mph N/A   Overcast
3:15 AM 26.6 °F 15.7 °F 21.2 °F 80% 29.07 in 1.5 mi WNW 12.7 mph 24.2 mph N/A   Overcast
3:35 AM 26.6 °F 14.7 °F 19.4 °F 74% 29.08 in 1.8 mi WNW 15.0 mph 20.7 mph N/A   Overcast
3:55 AM 24.8 °F 12.4 °F 19.4 °F 80% 29.09 in 2.0 mi NW 15.0 mph 20.7 mph N/A   Overcast
4:15 AM 24.8 °F 14.6 °F 19.4 °F 80% 29.10 in 5.0 mi West 10.4 mph - N/A   Overcast
4:35 AM 24.8 °F 11.5 °F 17.6 °F 74% 29.11 in 4.0 mi West 17.3 mph 24.2 mph N/A   Overcast
4:55 AM 23.0 °F 8.7 °F 17.6 °F 80% 29.11 in 4.0 mi WNW 18.4 mph 26.5 mph N/A   Overcast
5:15 AM 23.0 °F 9.2 °F 17.6 °F 80% 29.12 in 5.0 mi West 17.3 mph 23.0 mph N/A   Overcast
5:35 AM 23.0 °F 8.0 °F 15.8 °F 74% 29.12 in 3.0 mi WNW 20.7 mph 26.5 mph N/A   Overcast
5:55 AM 21.2 °F 5.6 °F 15.8 °F 80% 29.13 in 3.0 mi West 20.7 mph 29.9 mph N/A   Scattered Clouds
6:15 AM 21.2 °F 4.9 °F 15.8 °F 80% 29.15 in 3.0 mi WNW 23.0 mph 31.1 mph N/A   Scattered Clouds
6:35 AM 23.0 °F 7.6 °F 17.6 °F 80% 29.17 in 6.0 mi WNW 21.9 mph 36.8 mph N/A   Overcast
6:55 AM 23.0 °F 8.7 °F 17.6 °F 80% 29.19 in 6.0 mi WNW 18.4 mph 32.2 mph N/A   Overcast
7:15 AM 21.2 °F 4.5 °F 15.8 °F 80% 29.20 in 4.0 mi West 24.2 mph 39.1 mph N/A   Overcast
7:35 AM 21.2 °F 4.9 °F 17.6 °F 86% 29.22 in 5.0 mi WNW 23.0 mph 29.9 mph N/A   Scattered Clouds
7:55 AM 21.2 °F 4.9 °F 15.8 °F 80% 29.24 in 4.0 mi WNW 23.0 mph 34.5 mph N/A   Partly Cloudy
8:15 AM 23.0 °F 8.0 °F 15.8 °F 74% 29.24 in 5.0 mi WNW 20.7 mph 33.4 mph N/A   Partly Cloudy
8:35 AM 23.0 °F 8.7 °F 17.6 °F 80% 29.25 in 10.0 mi WNW 18.4 mph 29.9 mph N/A   Mostly Cloudy
8:55 AM 24.8 °F 11.5 °F 17.6 °F 74% 29.26 in 9.0 mi WNW 17.3 mph 26.5 mph N/A   Mostly Cloudy
9:15 AM 24.8 °F 13.4 °F 17.6 °F 74% 29.29 in 2.5 mi West 12.7 mph 27.6 mph N/A   Mostly Cloudy
9:35 AM 24.8 °F 11.1 °F 19.4 °F 80% 29.29 in 5.0 mi WNW 18.4 mph 28.8 mph N/A   Overcast
9:55 AM 24.8 °F 9.6 °F 17.6 °F 74% 29.30 in 5.0 mi WNW 23.0 mph 33.4 mph N/A   Overcast
10:15 AM 24.8 °F 12.9 °F 19.4 °F 80% 29.31 in 10.0 mi West 13.8 mph 24.2 mph N/A   Overcast
10:35 AM 26.6 °F 13.1 °F 17.6 °F 69% 29.33 in 10.0 mi West 19.6 mph 28.8 mph N/A   Overcast
10:55 AM 28.4 °F 15.1 °F 19.4 °F 69% 29.34 in 10.0 mi WNW 20.7 mph 26.5 mph N/A   Mostly Cloudy
11:15 AM 28.4 °F 14.7 °F 19.4 °F 69% 29.35 in 9.0 mi West 21.9 mph 31.1 mph N/A   Scattered Clouds
11:35 AM 30.2 °F 18.1 °F 19.4 °F 64% 29.36 in 10.0 mi West 18.4 mph 29.9 mph N/A   Clear
11:55 AM 30.2 °F 18.5 °F 19.4 °F 64% 29.37 in 10.0 mi WNW 17.3 mph 26.5 mph N/A   Scattered Clouds
12:15 PM 32.0 °F 21.2 °F 19.4 °F 60% 29.38 in 10.0 mi West 16.1 mph 31.1 mph N/A   Overcast
12:35 PM 32.0 °F 20.1 °F 21.2 °F 64% 29.38 in 8.0 mi West 19.6 mph 35.7 mph N/A   Overcast
12:55 PM 32.0 °F 20.8 °F 21.2 °F 64% 29.39 in 10.0 mi West 17.3 mph 28.8 mph N/A   Mostly Cloudy
1:15 PM 32.0 °F 19.5 °F 21.2 °F 64% 29.40 in 10.0 mi West 21.9 mph 33.4 mph N/A   Mostly Cloudy
1:35 PM 30.2 °F 18.5 °F 19.4 °F 64% 29.41 in 10.0 mi West 17.3 mph 23.0 mph N/A   Overcast
1:55 PM 30.2 °F 18.1 °F 19.4 °F 64% 29.42 in 10.0 mi West 18.4 mph 25.3 mph N/A   Overcast
2:15 PM 30.2 °F 19.3 °F 19.4 °F 64% 29.44 in 10.0 mi West 15.0 mph 24.2 mph N/A   Overcast
2:35 PM 32.0 °F 20.5 °F 17.6 °F 55% 29.45 in 10.0 mi West 18.4 mph 35.7 mph N/A   Overcast
2:55 PM 30.2 °F 20.2 °F 17.6 °F 60% 29.47 in 10.0 mi West 12.7 mph 27.6 mph N/A   Mostly Cloudy
3:15 PM 30.2 °F 18.5 °F 17.6 °F 60% 29.48 in 10.0 mi West 17.3 mph 25.3 mph N/A   Mostly Cloudy
3:35 PM 30.2 °F 21.3 °F 21.2 °F 69% 29.49 in 10.0 mi West 10.4 mph 19.6 mph N/A   Overcast
3:55 PM 30.2 °F 18.9 °F 19.4 °F 64% 29.50 in 10.0 mi West 16.1 mph 24.2 mph N/A   Mostly Cloudy
4:15 PM 30.2 °F 18.9 °F 19.4 °F 64% 29.50 in 10.0 mi West 16.1 mph 26.5 mph N/A   Mostly Cloudy
4:35 PM 30.2 °F 20.2 °F 19.4 °F 64% 29.52 in 10.0 mi West 12.7 mph 27.6 mph N/A   Overcast
4:55 PM 30.2 °F 20.8 °F 19.4 °F 64% 29.53 in 10.0 mi West 11.5 mph 26.5 mph N/A   Overcast
5:15 PM 30.2 °F 19.3 °F 17.6 °F 60% 29.53 in 10.0 mi West 15.0 mph 28.8 mph N/A   Mostly Cloudy
5:35 PM 30.2 °F 21.3 °F 17.6 °F 60% 29.54 in 10.0 mi West 10.4 mph 19.6 mph N/A   Mostly Cloudy
5:55 PM 28.4 °F 19.1 °F 17.6 °F 64% 29.56 in 10.0 mi WNW 10.4 mph - N/A   Scattered Clouds
6:15 PM 28.4 °F 21.2 °F 19.4 °F 69% 29.57 in 10.0 mi West 6.9 mph - N/A   Mostly Cloudy
6:35 PM 28.4 °F 19.1 °F 19.4 °F 69% 29.57 in 10.0 mi West 10.4 mph - N/A   Overcast
6:55 PM 28.4 °F 18.0 °F 19.4 °F 69% 29.60 in 10.0 mi West 12.7 mph 19.6 mph N/A   Overcast
7:15 PM 28.4 °F 19.7 °F 17.6 °F 64% 29.65 in 10.0 mi WSW 9.2 mph - N/A   Overcast
7:35 PM 28.4 °F 19.1 °F 19.4 °F 69% 29.66 in 10.0 mi West 10.4 mph - N/A   Overcast
7:55 PM 30.2 °F 20.8 °F 17.6 °F 60% 29.66 in 10.0 mi West 11.5 mph 19.6 mph N/A   Overcast
8:15 PM 30.2 °F 20.8 °F 17.6 °F 60% 29.67 in 10.0 mi WNW 11.5 mph 18.4 mph N/A   Overcast
8:35 PM 30.2 °F 21.9 °F 17.6 °F 60% 29.67 in 10.0 mi West 9.2 mph - N/A   Overcast
8:55 PM 28.4 °F 19.7 °F 17.6 °F 64% 29.68 in 10.0 mi West 9.2 mph - N/A   Overcast
9:15 PM 28.4 °F 19.1 °F 17.6 °F 64% 29.68 in 10.0 mi West 10.4 mph - N/A   Overcast
9:35 PM 28.4 °F 21.2 °F 17.6 °F 64% 29.70 in 10.0 mi West 6.9 mph - N/A   Overcast
9:55 PM 28.4 °F 21.2 °F 17.6 °F 64% 29.69 in 10.0 mi West 6.9 mph - N/A   Overcast
10:15 PM 28.4 °F 21.2 °F 17.6 °F 64% 29.69 in 10.0 mi WNW 6.9 mph - N/A   Overcast
10:35 PM 28.4 °F 23.3 °F 17.6 °F 64% 29.70 in 10.0 mi West 4.6 mph - N/A   Overcast
10:55 PM 28.4 °F 23.3 °F 17.6 °F 64% 29.71 in 10.0 mi WNW 4.6 mph - N/A   Overcast
11:15 PM 28.4 °F 20.4 °F 17.6 °F 64% 29.72 in 10.0 mi NW 8.1 mph - N/A   Overcast
11:35 PM 28.4 °F 24.6 °F 17.6 °F 64% 29.72 in 10.0 mi SW 3.5 mph - N/A   Overcast
11:55 PM 28.4 °F 23.3 °F 17.6 °F 64% 29.73 in 10.0 mi WSW 4.6 mph - N/A   Overcast